TimeMST,TemperatureF,Dew PointF,Humidity,Sea Level PressureIn,VisibilityMPH,Wind Direction,Wind SpeedMPH,Gust SpeedMPH,PrecipitationIn,Events,Conditions,WindDirDegrees,DateUTC
12:15 AM,44.6,39.2,81,29.75,10.0,Calm,Calm,-,N/A,,Overcast,0,2012-12-14 07:15:00
12:35 AM,44.6,39.2,81,29.75,10.0,West,3.5,-,N/A,,Overcast,260,2012-12-14 07:35:00
12:55 AM,44.6,39.2,81,29.73,10.0,Calm,Calm,-,N/A,,Overcast,0,2012-12-14 07:55:00
1:15 AM,44.6,39.2,81,29.72,10.0,SSE,3.5,-,N/A,,Mostly Cloudy,150,2012-12-14 08:15:00
1:35 AM,44.6,39.2,81,29.71,10.0,SW,4.6,-,N/A,,Mostly Cloudy,230,2012-12-14 08:35:00
1:55 AM,42.8,39.2,87,29.70,10.0,SW,3.5,-,N/A,,Overcast,220,2012-12-14 08:55:00
2:15 AM,44.6,39.2,81,29.70,10.0,SW,3.5,-,N/A,,Overcast,230,2012-12-14 09:15:00
2:35 AM,44.6,39.2,81,29.69,10.0,Calm,Calm,-,N/A,,Overcast,0,2012-12-14 09:35:00
2:55 AM,42.8,39.2,87,29.68,10.0,ESE,3.5,-,N/A,,Overcast,120,2012-12-14 09:55:00
3:15 AM,44.6,39.2,81,29.67,10.0,ENE,3.5,-,N/A,,Overcast,60,2012-12-14 10:15:00
3:55 AM,42.8,39.2,87,29.65,10.0,Calm,Calm,-,N/A,,Overcast,0,2012-12-14 10:55:00
4:15 AM,42.8,39.2,87,29.64,10.0,WNW,3.5,-,N/A,,Overcast,300,2012-12-14 11:15:00
4:35 AM,42.8,39.2,87,29.64,9.0,NW,4.6,-,N/A,,Overcast,320,2012-12-14 11:35:00
4:55 AM,42.8,39.2,87,29.62,10.0,NNW,5.8,-,0.02,,Overcast,330,2012-12-14 11:55:00
5:15 AM,42.8,39.2,87,29.62,10.0,Calm,Calm,-,N/A,,Overcast,0,2012-12-14 12:15:00
5:35 AM,42.8,39.2,87,29.61,10.0,Calm,Calm,-,N/A,,Overcast,0,2012-12-14 12:35:00
5:55 AM,42.8,39.2,87,29.62,9.0,SW,4.6,-,N/A,,Overcast,230,2012-12-14 12:55:00
6:15 AM,42.8,39.2,87,29.62,10.0,Calm,Calm,-,N/A,,Overcast,0,2012-12-14 13:15:00
6:35 AM,42.8,39.2,87,29.63,6.0,Calm,Calm,-,N/A,,Overcast,0,2012-12-14 13:35:00
6:55 AM,42.8,39.2,87,29.62,5.0,Calm,Calm,-,N/A,,Overcast,0,2012-12-14 13:55:00
7:15 AM,42.8,39.2,87,29.63,7.0,Calm,Calm,-,N/A,,Overcast,0,2012-12-14 14:15:00
7:35 AM,42.8,39.2,87,29.63,5.0,Calm,Calm,-,0.01,,Overcast,0,2012-12-14 14:35:00
7:55 AM,42.8,39.2,87,29.63,3.0,Calm,Calm,-,0.02,,Overcast,0,2012-12-14 14:55:00
8:15 AM,42.8,39.2,87,29.64,3.0,Calm,Calm,-,0.01,,Overcast,0,2012-12-14 15:15:00
8:35 AM,42.8,39.2,87,29.64,4.0,Calm,Calm,-,0.02,,Overcast,0,2012-12-14 15:35:00
8:55 AM,42.8,39.2,87,29.65,4.0,Calm,Calm,-,0.03,,Overcast,0,2012-12-14 15:55:00
9:15 AM,42.8,39.2,87,29.65,6.0,Calm,Calm,-,0.01,,Overcast,0,2012-12-14 16:15:00
9:35 AM,44.6,39.2,81,29.66,7.0,SW,4.6,-,0.01,,Overcast,220,2012-12-14 16:35:00
9:55 AM,44.6,41.0,87,29.68,10.0,Calm,Calm,-,0.01,,Overcast,0,2012-12-14 16:55:00
10:15 AM,44.6,41.0,87,29.68,9.0,Calm,Calm,-,N/A,,Overcast,0,2012-12-14 17:15:00
10:35 AM,44.6,41.0,87,29.69,10.0,Calm,Calm,-,0.01,,Overcast,0,2012-12-14 17:35:00
10:55 AM,44.6,41.0,87,29.70,10.0,SSW,6.9,-,0.01,,Overcast,210,2012-12-14 17:55:00
11:15 AM,44.6,41.0,87,29.70,8.0,SSW,4.6,-,N/A,,Mostly Cloudy,200,2012-12-14 18:15:00
11:35 AM,44.6,41.0,87,29.70,10.0,WSW,5.8,-,N/A,,Overcast,240,2012-12-14 18:35:00
11:55 AM,44.6,41.0,87,29.71,10.0,WSW,5.8,-,N/A,,Overcast,250,2012-12-14 18:55:00
12:15 PM,44.6,42.8,93,29.71,10.0,WSW,8.1,-,N/A,,Overcast,250,2012-12-14 19:15:00
12:35 PM,44.6,39.2,81,29.72,10.0,SW,9.2,-,N/A,,Overcast,220,2012-12-14 19:35:00
12:55 PM,44.6,39.2,81,29.71,10.0,WSW,5.8,-,N/A,,Overcast,240,2012-12-14 19:55:00
1:15 PM,44.6,39.2,81,29.72,10.0,West,5.8,-,N/A,,Overcast,260,2012-12-14 20:15:00
1:35 PM,44.6,39.2,81,29.72,10.0,West,5.8,-,N/A,,Overcast,260,2012-12-14 20:35:00
1:55 PM,44.6,39.2,81,29.73,10.0,West,8.1,-,N/A,,Overcast,270,2012-12-14 20:55:00
2:15 PM,44.6,39.2,81,29.73,10.0,West,9.2,-,N/A,,Overcast,270,2012-12-14 21:15:00
2:35 PM,44.6,39.2,81,29.74,10.0,West,8.1,-,N/A,,Overcast,270,2012-12-14 21:35:00
2:55 PM,46.4,39.2,76,29.75,10.0,West,4.6,-,N/A,,Overcast,280,2012-12-14 21:55:00
3:15 PM,46.4,39.2,76,29.76,10.0,West,8.1,-,N/A,,Overcast,270,2012-12-14 22:15:00
3:35 PM,46.4,39.2,76,29.77,10.0,West,8.1,-,N/A,,Overcast,260,2012-12-14 22:35:00
3:55 PM,46.4,39.2,76,29.78,10.0,WSW,6.9,-,N/A,,Overcast,250,2012-12-14 22:55:00
4:15 PM,46.4,39.2,76,29.79,10.0,West,6.9,-,N/A,,Mostly Cloudy,260,2012-12-14 23:15:00
4:35 PM,46.4,35.6,66,29.80,10.0,SSW,25.3,29.9,N/A,,Overcast,210,2012-12-14 23:35:00
4:55 PM,46.4,35.6,66,29.80,10.0,SSW,27.6,-,N/A,,Overcast,210,2012-12-14 23:55:00
5:15 PM,46.4,33.8,62,29.82,10.0,SSW,23.0,-,N/A,,Overcast,210,2012-12-15 00:15:00
5:35 PM,46.4,33.8,62,29.83,10.0,SW,15.0,-,N/A,,Overcast,220,2012-12-15 00:35:00
5:55 PM,46.4,33.8,62,29.84,10.0,SW,18.4,25.3,N/A,,Overcast,230,2012-12-15 00:55:00
6:15 PM,46.4,32.0,57,29.85,10.0,SW,24.2,-,N/A,,Overcast,220,2012-12-15 01:15:00
6:55 PM,46.4,30.2,53,29.87,10.0,WSW,16.1,24.2,N/A,,Overcast,240,2012-12-15 01:55:00
7:35 PM,44.6,30.2,57,29.90,10.0,SSW,9.2,-,N/A,,Overcast,200,2012-12-15 02:35:00
7:55 PM,44.6,30.2,57,29.90,10.0,South,5.8,-,N/A,,Overcast,190,2012-12-15 02:55:00
8:15 PM,44.6,32.0,61,29.91,10.0,SW,5.8,-,N/A,,Mostly Cloudy,220,2012-12-15 03:15:00
8:35 PM,44.6,32.0,61,29.92,10.0,SSW,4.6,-,N/A,,Partly Cloudy,210,2012-12-15 03:35:00
8:55 PM,44.6,30.2,57,29.92,10.0,SSE,9.2,-,N/A,,Partly Cloudy,160,2012-12-15 03:55:00
9:15 PM,42.8,30.2,61,29.92,10.0,SSE,9.2,-,N/A,,Mostly Cloudy,150,2012-12-15 04:15:00
9:35 PM,42.8,30.2,61,29.93,10.0,SSE,9.2,-,N/A,,Overcast,160,2012-12-15 04:35:00
9:55 PM,44.6,30.2,57,29.93,10.0,SSW,6.9,-,N/A,,Overcast,200,2012-12-15 04:55:00
10:15 PM,44.6,30.2,57,29.93,10.0,South,10.4,-,N/A,,Overcast,180,2012-12-15 05:15:00
10:35 PM,44.6,28.4,53,29.93,10.0,South,9.2,-,N/A,,Overcast,180,2012-12-15 05:35:00
10:55 PM,42.8,30.2,61,29.94,10.0,SE,6.9,-,N/A,,Overcast,140,2012-12-15 05:55:00
11:15 PM,44.6,30.2,57,29.94,10.0,SSW,8.1,-,N/A,,Overcast,210,2012-12-15 06:15:00
11:35 PM,42.8,30.2,61,29.94,10.0,SSW,16.1,-,N/A,,Overcast,210,2012-12-15 06:35:00
11:55 PM,42.8,30.2,61,29.94,10.0,SW,17.3,-,N/A,,Overcast,220,2012-12-15 06:55:00